DW7126 Lourinha PT current weather conditions

sailwx.info

Wind from 360 at 7 knots gusting 12

Air temperature 20.0° C
Dewpoint 16.6° C

Last reported at 2017-Jun-26 13:05 UTC.
Time now 2017-Jun-26 14:02 UTC

Location: N 39°14' W 009°18'.
View on Google Maps.

See reports from other nearby stations

  
Tides and Currents Weather Stations Pressure Air Temp Water Temp Dewpoint Dewpoint Depression Visibility Wind Speed Wind Dir Waves Ship Positions
date/time (UTC)wind fromknots sea level pressurealtimeterstation pressurevisibilityair tempwater tempwave heightnotes
2017-Jun-26 13:05 360 7 gusting 12 20.0
2017-Jun-26 13:00 250 10 gusting 13 20.0
2017-Jun-26 12:55 360 10 gusting 13 20.6
2017-Jun-26 12:50 360 9 gusting 12 20.0
2017-Jun-26 12:45 360 7 gusting 10 20.0
2017-Jun-26 12:40 250 6 gusting 10 20.6
2017-Jun-26 12:35 275 6 gusting 10 20.6
2017-Jun-26 12:30 236 7 gusting 11 20.6
2017-Jun-26 12:25 360 6 gusting 11 21.1
2017-Jun-26 12:20 360 6 gusting 10 20.6
2017-Jun-26 12:15 251 4 gusting 10 20.6
2017-Jun-26 12:10 282 6 gusting 10 20.6
2017-Jun-26 12:00 360 7 gusting 12 20.6
2017-Jun-26 11:55 360 6 gusting 11 20.6
2017-Jun-26 11:50 360 7 gusting 11 20.6
2017-Jun-26 11:45 274 5 gusting 9 20.6
2017-Jun-26 11:40 260 5 gusting 9 20.6
2017-Jun-26 11:35 360 5 gusting 9 20.6
2017-Jun-26 11:30 298 4 gusting 9 20.6
2017-Jun-26 11:25 360 5 gusting 9 20.6
2017-Jun-26 11:20 271 6 gusting 10 20.6
2017-Jun-26 11:15 360 6 gusting 10 20.6
2017-Jun-26 11:10 360 4 gusting 9 21.1
2017-Jun-26 11:05 281 4 gusting 10 20.6
2017-Jun-26 11:00 360 6 gusting 10 20.0
2017-Jun-26 10:55 360 5 gusting 8 20.0
2017-Jun-26 10:50 360 6 gusting 8 20.6
2017-Jun-26 10:45 360 4 gusting 10 20.0
2017-Jun-26 10:40 360 6 gusting 10 20.0
2017-Jun-26 10:35 360 6 gusting 11 20.0
2017-Jun-26 10:30 360 6 gusting 11 20.0
2017-Jun-26 10:25 252 7 gusting 10 20.0
2017-Jun-26 10:20 360 6 gusting 9 20.0
2017-Jun-26 10:15 257 5 gusting 8 20.0
2017-Jun-26 10:10 273 5 gusting 8 20.0
2017-Jun-26 10:05 286 6 gusting 8 19.4
2017-Jun-26 10:00 360 6 gusting 8 20.0
2017-Jun-26 09:55 282 6 gusting 8 20.0
2017-Jun-26 09:50 270 5 gusting 8 20.0
2017-Jun-26 09:45 360 5 gusting 8 20.0
2017-Jun-26 09:40 360 4 gusting 7 20.6
2017-Jun-26 09:35 360 4 gusting 8 20.6
2017-Jun-26 09:30 279 4 gusting 8 20.0
2017-Jun-26 09:25 283 4 gusting 6 20.0
2017-Jun-26 09:20 360 3 gusting 6 20.0
2017-Jun-26 09:15 287 1 gusting 6 20.0
2017-Jun-26 09:10 278 2 gusting 6 20.0
2017-Jun-26 09:05 360 2 gusting 7 20.0
2017-Jun-26 09:00 277 3 gusting 7 20.0
2017-Jun-26 08:55 280 2 gusting 6 20.0
2017-Jun-26 08:50 286 20.0
2017-Jun-26 08:45 290 0 gusting 5 20.0
2017-Jun-26 08:40 336 0 gusting 2 19.4
2017-Jun-26 08:35 341 0 gusting 1 19.4
2017-Jun-26 08:30 349 19.4
2017-Jun-26 08:25 349 18.9
2017-Jun-26 08:15 346 18.3
2017-Jun-26 08:10 346 18.3
2017-Jun-26 08:05 346 18.3
2017-Jun-26 08:00 346 17.8
2017-Jun-26 07:55 346 17.8
2017-Jun-26 07:50 360 17.8
2017-Jun-26 07:45 350 17.8
2017-Jun-26 07:40 350 0 gusting 6 17.8
2017-Jun-26 07:35 350 4 gusting 7 17.8
2017-Jun-26 07:25 334 1 gusting 6 17.8
2017-Jun-26 07:20 332 2 gusting 6 17.8
2017-Jun-26 07:15 324 2 gusting 5 17.8
2017-Jun-26 07:10 304 0 gusting 5 17.8
2017-Jun-26 07:05 360 1 gusting 5 17.8
2017-Jun-26 07:00 292 0 gusting 6 17.8
2017-Jun-26 06:55 281 2 gusting 6 17.8
2017-Jun-26 06:50 266 5 gusting 8 17.8
2017-Jun-26 06:45 259 6 gusting 8 17.8
2017-Jun-26 06:40 252 4 gusting 6 17.8
2017-Jun-26 06:35 270 3 gusting 6 17.8
2017-Jun-26 06:30 281 3 gusting 6 17.8
2017-Jun-26 06:25 360 4 gusting 6 17.8
2017-Jun-26 06:20 268 4 gusting 6 17.8
2017-Jun-26 06:15 283 3 gusting 6 17.8
2017-Jun-26 06:10 274 0 gusting 6 17.8
2017-Jun-26 06:05 282 1 gusting 6 17.2
2017-Jun-26 06:00 286 2 gusting 6 17.2
2017-Jun-26 05:55 284 1 gusting 6 17.2
2017-Jun-26 05:50 264 2 gusting 6 17.2
2017-Jun-26 05:45 360 0 gusting 3 17.2
2017-Jun-26 05:40 288 1 gusting 3 17.2
2017-Jun-26 05:35 290 0 gusting 3 17.2
2017-Jun-26 05:30 291 17.2
2017-Jun-26 05:20 290 0 gusting 3 17.2
2017-Jun-26 05:15 290 0 gusting 1 17.2
2017-Jun-26 05:10 291 17.2
2017-Jun-26 05:05 291 17.2
2017-Jun-26 04:55 291 17.8
2017-Jun-26 04:50 291 17.8
2017-Jun-26 04:45 290 17.8
2017-Jun-26 04:40 292 17.8
2017-Jun-26 04:35 292 17.8
2017-Jun-26 04:30 291 17.8
2017-Jun-26 04:25 291 17.8
2017-Jun-26 04:20 292 17.8
2017-Jun-26 04:10 292 17.2
2017-Jun-26 04:05 292 17.2
2017-Jun-26 04:00 292 0 gusting 1 17.2
2017-Jun-26 03:55 292 0 gusting 1 17.2
2017-Jun-26 03:50 292 0 gusting 2 17.2
2017-Jun-26 03:45 294 17.8
2017-Jun-26 03:40 294 0 gusting 5 17.8
2017-Jun-26 03:35 294 1 gusting 3 17.8
2017-Jun-26 03:30 298 0 gusting 3 17.8
2017-Jun-26 03:25 300 17.8
2017-Jun-26 03:20 300 1 gusting 4 17.8
2017-Jun-26 03:15 302 1 gusting 3 17.8
2017-Jun-26 03:10 338 17.8
2017-Jun-26 03:05 338 17.8
2017-Jun-26 03:00 337 17.8
2017-Jun-26 02:55 337 17.8
2017-Jun-26 02:50 337 17.8
2017-Jun-26 02:45 338 17.8
2017-Jun-26 02:40 338 17.8
2017-Jun-26 02:35 338 17.8
2017-Jun-26 02:30 338 17.8
2017-Jun-26 02:25 337 17.8
2017-Jun-26 02:20 337 17.8
2017-Jun-26 02:15 338 17.8
2017-Jun-26 02:10 338 17.8
2017-Jun-26 02:05 337 17.8
2017-Jun-26 02:00 337 17.8
2017-Jun-26 01:55 336 17.8
2017-Jun-26 01:50 338 17.8
2017-Jun-26 01:45 338 17.8
2017-Jun-26 01:40 339 17.8
2017-Jun-26 01:35 338 17.8
2017-Jun-26 01:30 337 2 gusting 4 17.8
2017-Jun-26 01:25 341 0 gusting 2 17.8
2017-Jun-26 01:20 340 0 gusting 3 17.8
2017-Jun-26 01:15 340 1 gusting 5 17.8
2017-Jun-26 01:10 342 0 gusting 5 17.8
2017-Jun-26 01:05 005 0 gusting 3 17.8
2017-Jun-26 01:00 023 17.8
2017-Jun-26 00:55 023 17.8
2017-Jun-26 00:50 023 17.8
2017-Jun-26 00:45 023 17.8
2017-Jun-26 00:40 024 17.8
2017-Jun-26 00:35 023 0 gusting 5 17.8
2017-Jun-26 00:30 028 0 gusting 4 17.8
2017-Jun-26 00:25 022 1 gusting 4 17.8
2017-Jun-26 00:20 022 0 gusting 1 17.8
2017-Jun-26 00:15 022 17.8
2017-Jun-26 00:10 022 17.8
2017-Jun-26 00:05 022 17.2
2017-Jun-26 00:00 023 17.2
2017-Jun-25 23:55 023 17.2
2017-Jun-25 23:50 023 17.2
2017-Jun-25 23:45 023 17.2
2017-Jun-25 23:40 023 17.2
2017-Jun-25 23:35 022 17.2
2017-Jun-25 23:30 022 17.2
2017-Jun-25 23:25 024 0 gusting 5 17.2
2017-Jun-25 23:20 014 2 gusting 5 17.2
2017-Jun-25 23:15 012 1 gusting 3 17.2
2017-Jun-25 23:10 011 17.2
2017-Jun-25 23:05 011 17.2
2017-Jun-25 23:00 011 17.2
2017-Jun-25 22:55 011 17.2
2017-Jun-25 22:50 011 17.2
2017-Jun-25 22:45 011 17.2
2017-Jun-25 22:40 011 17.2
2017-Jun-25 22:35 011 17.2
2017-Jun-25 22:30 011 17.2
2017-Jun-25 22:25 011 17.2
2017-Jun-25 22:20 011 17.2
2017-Jun-25 22:15 011 17.2
2017-Jun-25 22:10 011 17.2
2017-Jun-25 22:05 011 17.8
2017-Jun-25 22:00 010 17.8
2017-Jun-25 21:55 010 0 gusting 3 17.8
2017-Jun-25 21:50 360 17.8
2017-Jun-25 21:45 360 17.8
2017-Jun-25 21:40 348 17.8
2017-Jun-25 21:35 348 17.8
2017-Jun-25 21:30 348 17.8
2017-Jun-25 21:25 348 17.8
2017-Jun-25 21:20 346 17.8
2017-Jun-25 21:15 348 17.8
2017-Jun-25 21:10 347 0 gusting 4 17.8
2017-Jun-25 21:05 348 0 gusting 4 17.8
2017-Jun-25 21:00 348 0 gusting 3 17.8
2017-Jun-25 20:55 348 17.8
2017-Jun-25 20:50 348 1 gusting 6 17.8
2017-Jun-25 20:45 347 3 gusting 6 17.8
2017-Jun-25 20:40 349 3 gusting 5 17.8
2017-Jun-25 20:35 344 2 gusting 6 17.8
2017-Jun-25 20:30 338 3 gusting 6 17.8
2017-Jun-25 20:25 344 2 gusting 5 17.8
2017-Jun-25 20:20 339 2 gusting 6 18.3
2017-Jun-25 20:15 338 5 gusting 8 18.3
2017-Jun-25 20:10 355 3 gusting 8 18.3
2017-Jun-25 20:05 360 3 gusting 8 18.3
2017-Jun-25 20:00 360 4 gusting 8 18.3
2017-Jun-25 19:55 005 4 gusting 8 18.9
2017-Jun-25 19:50 329 6 gusting 10 18.9
2017-Jun-25 19:45 009 6 gusting 10 18.9
2017-Jun-25 19:40 328 6 gusting 8 18.9
2017-Jun-25 19:35 360 6 gusting 8 18.9
2017-Jun-25 19:30 339 5 gusting 9 18.9
2017-Jun-25 19:25 339 6 gusting 9 18.9
2017-Jun-25 19:20 360 5 gusting 9 18.9
2017-Jun-25 19:15 342 6 gusting 9 18.9
2017-Jun-25 19:10 340 4 gusting 8 18.9
2017-Jun-25 19:05 333 6 gusting 9 18.9
2017-Jun-25 19:00 020 3 gusting 10 18.9
2017-Jun-25 18:55 360 6 gusting 10 18.9
2017-Jun-25 18:50 009 5 gusting 10 18.9
2017-Jun-25 18:45 351 6 gusting 10 19.4
2017-Jun-25 18:40 009 6 gusting 12 19.4
2017-Jun-25 18:35 024 3 gusting 12 19.4
2017-Jun-25 18:30 032 6 gusting 10 19.4
2017-Jun-25 18:25 360 6 gusting 13 19.4
2017-Jun-25 18:20 360 7 gusting 14 19.4
2017-Jun-25 18:15 360 10 gusting 15 19.4
2017-Jun-25 18:10 360 9 gusting 15 19.4
2017-Jun-25 18:05 360 6 gusting 13 19.4
2017-Jun-25 18:00 360 6 gusting 12 20.0
2017-Jun-25 17:55 360 7 gusting 12 19.4
2017-Jun-25 17:50 022 6 gusting 10 20.0
2017-Jun-25 17:45 338 6 gusting 10 19.4
2017-Jun-25 17:40 015 6 gusting 12 19.4
2017-Jun-25 17:30 360 6 gusting 13 20.0
2017-Jun-25 17:25 013 5 gusting 13 19.4
2017-Jun-25 17:20 360 6 gusting 13 19.4
2017-Jun-25 17:15 022 7 gusting 12 19.4
2017-Jun-25 17:10 338 5 gusting 10 19.4
2017-Jun-25 17:05 345 6 gusting 13 19.4
2017-Jun-25 17:00 360 7 gusting 13 19.4
2017-Jun-25 16:55 330 7 gusting 13 19.4
2017-Jun-25 16:50 360 9 gusting 13 19.4
2017-Jun-25 16:45 360 6 gusting 13 19.4
2017-Jun-25 16:40 329 6 gusting 13 19.4
2017-Jun-25 16:35 296 9 gusting 13 19.4
2017-Jun-25 16:30 318 6 gusting 13 20.0
2017-Jun-25 16:25 333 7 gusting 13 19.4
2017-Jun-25 16:20 360 9 gusting 13 19.4
2017-Jun-25 16:10 360 9 gusting 14 20.0
2017-Jun-25 16:05 360 7 gusting 13 20.0
2017-Jun-25 16:00 351 9 gusting 13 20.0
2017-Jun-25 15:55 351 6 gusting 10 20.6
2017-Jun-25 15:45 360 5 gusting 10 20.6
2017-Jun-25 15:40 355 6 gusting 9 20.6
2017-Jun-25 15:35 011 6 gusting 9 20.6
2017-Jun-25 15:30 360 5 gusting 8 20.0
2017-Jun-25 15:25 360 5 gusting 9 20.0
2017-Jun-25 15:15 030 6 gusting 8 20.0
2017-Jun-25 15:10 024 5 gusting 8 20.0
2017-Jun-25 15:05 360 4 gusting 9 20.0
2017-Jun-25 15:00 033 5 gusting 9 20.0
2017-Jun-25 14:55 360 6 gusting 9 20.0
2017-Jun-25 14:50 360 6 gusting 9 20.0
2017-Jun-25 14:45 350 5 gusting 8 20.6
2017-Jun-25 14:40 350 6 gusting 11 20.6
2017-Jun-25 14:35 360 7 gusting 11 20.6
2017-Jun-25 14:30 351 6 gusting 12 20.6
2017-Jun-25 14:25 325 6 gusting 12 20.6
2017-Jun-25 14:15 360 6 gusting 10 21.1
2017-Jun-25 14:10 360 6 gusting 10 21.1
2017-Jun-25 14:05 042 6 gusting 11 21.7
2017-Jun-25 14:00 020 6 gusting 11 21.7
2017-Jun-25 13:55 360 6 gusting 11 21.7
2017-Jun-25 13:50 360 6 gusting 11 21.7
2017-Jun-25 13:45 034 6 gusting 12 22.2
2017-Jun-25 13:40 341 7 gusting 12 22.8
2017-Jun-25 13:30 360 7 gusting 16 22.2
2017-Jun-25 13:25 019 7 gusting 16 22.2
2017-Jun-25 13:20 360 7 gusting 13 22.2
2017-Jun-25 13:15 015 8 gusting 14 22.2
2017-Jun-25 13:10 325 8 gusting 14 21.7
2017-Jun-25 13:05 360 9 gusting 13 21.1
2017-Jun-25 13:00 317 8 gusting 14 21.1
2017-Jun-25 12:55 324 8 gusting 14 21.7
2017-Jun-25 12:50 321 8 gusting 15 21.7
2017-Jun-25 12:45 360 10 gusting 15 21.7
2017-Jun-25 12:40 345 8 gusting 13 21.1
2017-Jun-25 12:35 360 10 gusting 13 21.1
2017-Jun-25 12:30 321 7 gusting 10 21.1
2017-Jun-25 12:25 315 7 gusting 13 20.6
2017-Jun-25 12:20 360 7 gusting 13 21.1
2017-Jun-25 12:15 360 9 gusting 13 21.7
2017-Jun-25 12:10 346 7 gusting 12 21.7
2017-Jun-25 12:00 326 6 gusting 13 21.1
2017-Jun-25 11:55 360 9 gusting 13 21.1
2017-Jun-25 11:50 360 5 gusting 11 20.6
2017-Jun-25 11:45 309 6 gusting 11 20.6
2017-Jun-25 11:40 302 6 gusting 10 20.6
2017-Jun-25 11:35 360 6 gusting 13 20.6
2017-Jun-25 11:30 330 9 gusting 13 20.6
2017-Jun-25 11:25 360 6 gusting 13 20.6
2017-Jun-25 11:20 315 7 gusting 13 20.6
2017-Jun-25 11:15 330 9 gusting 13 20.0
2017-Jun-25 11:10 360 7 gusting 11 20.0
2017-Jun-25 11:05 306 6 gusting 11 20.0
2017-Jun-25 11:00 308 2 gusting 9 20.6
2017-Jun-25 10:55 360 6 gusting 11 20.6
2017-Jun-25 10:50 360 5 gusting 11 21.1
2017-Jun-25 10:45 331 4 gusting 9 21.1
2017-Jun-25 10:40 360 6 gusting 11 21.1
2017-Jun-25 10:35 022 6 gusting 11 21.1
2017-Jun-25 10:30 350 5 gusting 9 21.1
2017-Jun-25 10:25 005 4 gusting 9 20.6
2017-Jun-25 10:15 024 5 gusting 6 20.6
2017-Jun-25 10:10 046 2 gusting 9 20.0
2017-Jun-25 10:05 020 6 gusting 9 20.0
2017-Jun-25 10:00 036 3 gusting 8 19.4
2017-Jun-25 09:55 317 4 gusting 9 19.4
2017-Jun-25 09:50 017 5 gusting 9 19.4
2017-Jun-25 09:45 019 5 gusting 10 19.4
2017-Jun-25 09:40 017 4 gusting 10 18.9
2017-Jun-25 09:35 360 5 gusting 9 19.4
2017-Jun-25 09:30 009 5 gusting 7 19.4
2017-Jun-25 09:25 028 5 gusting 7 19.4
2017-Jun-25 09:20 360 3 gusting 8 19.4
2017-Jun-25 09:15 360 6 gusting 8 19.4
2017-Jun-25 09:10 026 6 gusting 8 19.4
2017-Jun-25 09:05 005 3 gusting 8 19.4
2017-Jun-25 09:00 360 5 gusting 8 19.4
2017-Jun-25 08:55 017 4 gusting 8 19.4
2017-Jun-25 08:50 360 5 gusting 8 19.4
2017-Jun-25 08:45 021 5 gusting 8 19.4
2017-Jun-25 08:40 009 5 gusting 10 19.4
2017-Jun-25 08:35 355 6 gusting 10 18.9
2017-Jun-25 08:30 025 5 gusting 7 18.9
2017-Jun-25 08:25 069 3 gusting 8 18.9
2017-Jun-25 08:20 021 6 gusting 13 18.9
2017-Jun-25 08:15 021 6 gusting 13 18.9
2017-Jun-25 08:10 045 6 gusting 13 18.9
2017-Jun-25 08:05 034 7 gusting 13 18.9
2017-Jun-25 08:00 017 6 gusting 12 18.9
2017-Jun-25 07:55 025 7 gusting 12 18.9
2017-Jun-25 07:50 360 8 gusting 12 18.9
2017-Jun-25 07:45 021 6 gusting 14 18.9
2017-Jun-25 07:40 025 8 gusting 14 18.3
2017-Jun-25 07:35 011 7 gusting 13 18.3
2017-Jun-25 07:30 037 7 gusting 13 18.3
2017-Jun-25 07:25 028 3 gusting 10 18.3
2017-Jun-25 07:20 022 6 gusting 10 18.3
2017-Jun-25 07:15 026 4 gusting 10 18.3
2017-Jun-25 07:10 026 6 gusting 10 18.3
2017-Jun-25 07:05 034 4 gusting 7 18.3
2017-Jun-25 07:00 360 4 gusting 7 18.3
2017-Jun-25 06:55 360 5 gusting 8 18.3
2017-Jun-25 06:50 018 5 gusting 8 18.3
2017-Jun-25 06:45 018 5 gusting 12 17.8
2017-Jun-25 06:40 023 7 gusting 12 17.8
2017-Jun-25 06:35 053 6 gusting 13 17.8
2017-Jun-25 06:30 026 7 gusting 13 17.8
2017-Jun-25 06:25 027 6 gusting 12 17.8
2017-Jun-25 06:20 027 7 gusting 12 17.8
2017-Jun-25 06:15 038 7 gusting 12 17.8
2017-Jun-25 06:10 013 5 gusting 7 17.8
2017-Jun-25 06:00 020 4 gusting 7 17.2
2017-Jun-25 05:55 015 2 gusting 7 17.2
2017-Jun-25 05:50 022 4 gusting 7 17.2
2017-Jun-25 05:45 021 1 gusting 4 17.2
2017-Jun-25 05:40 011 0 gusting 6 17.2
2017-Jun-25 05:35 015 4 gusting 6 17.2
2017-Jun-25 05:30 019 4 gusting 7 17.2
2017-Jun-25 05:25 034 5 gusting 9 17.2
2017-Jun-25 05:20 035 6 gusting 9 17.2
2017-Jun-25 05:15 023 5 gusting 8 17.2
2017-Jun-25 05:10 040 4 gusting 6 17.2
2017-Jun-25 05:05 053 0 gusting 8 17.2
2017-Jun-25 04:55 049 3 gusting 6 17.2
2017-Jun-25 04:50 056 4 gusting 6 17.2
2017-Jun-25 04:45 052 3 gusting 6 17.2
2017-Jun-25 04:40 023 3 gusting 6 17.2
2017-Jun-25 04:35 025 3 gusting 6 17.2
2017-Jun-25 04:30 025 4 gusting 6 17.2
2017-Jun-25 04:25 049 1 gusting 7 17.2
2017-Jun-25 04:20 030 5 gusting 7 17.2
2017-Jun-25 04:15 029 4 gusting 8 17.2
2017-Jun-25 04:05 044 6 gusting 7 17.2
2017-Jun-25 04:00 032 5 gusting 6 17.2
2017-Jun-25 03:55 032 1 gusting 5 17.2
2017-Jun-25 03:50 035 3 gusting 6 17.2
2017-Jun-25 03:45 025 4 gusting 6 17.2
2017-Jun-25 03:40 032 17.2
2017-Jun-25 03:35 033 17.2
2017-Jun-25 03:30 034 4 gusting 6 17.2
2017-Jun-25 03:25 041 5 gusting 6 17.2
2017-Jun-25 03:20 063 4 gusting 7 17.2
2017-Jun-25 03:15 055 4 gusting 12 17.2
2017-Jun-25 03:10 044 6 gusting 12 17.2
2017-Jun-25 03:05 067 7 gusting 12 17.2
2017-Jun-25 03:00 062 9 gusting 12 17.2
2017-Jun-25 02:55 046 5 gusting 11 17.2
2017-Jun-25 02:50 045 6 gusting 11 17.2
2017-Jun-25 02:45 026 5 gusting 8 17.2
2017-Jun-25 02:40 026 5 gusting 6 17.2
2017-Jun-25 02:35 034 3 gusting 6 17.2
2017-Jun-25 02:30 058 1 gusting 4 17.2
2017-Jun-25 02:25 048 1 gusting 9 17.2
2017-Jun-25 02:15 024 6 gusting 10 17.2
2017-Jun-25 02:10 022 6 gusting 9 17.2
2017-Jun-25 02:05 061 6 gusting 10 17.2
2017-Jun-25 02:00 029 4 gusting 11 17.2
2017-Jun-25 01:55 036 6 gusting 11 16.7
2017-Jun-25 01:50 036 6 gusting 13 16.7
2017-Jun-25 01:45 035 8 gusting 13 16.7
2017-Jun-25 01:40 018 6 gusting 10 16.7
2017-Jun-25 01:35 063 6 gusting 11 16.7
2017-Jun-25 01:30 041 6 gusting 13 16.7
2017-Jun-25 01:25 030 8 gusting 13 17.2
2017-Jun-25 01:20 029 7 gusting 13 17.2
2017-Jun-25 01:10 360 6 gusting 13 17.2
2017-Jun-25 01:05 026 6 gusting 12 17.2
2017-Jun-25 01:00 038 6 gusting 14 17.2
2017-Jun-25 00:55 024 7 gusting 14 17.2
2017-Jun-25 00:50 024 7 gusting 12 17.2
2017-Jun-25 00:45 028 6 gusting 11 17.2
2017-Jun-25 00:40 038 7 gusting 11 17.2
2017-Jun-25 00:35 042 7 gusting 13 17.2
2017-Jun-25 00:30 025 8 gusting 13 17.2
2017-Jun-25 00:25 360 8 gusting 13 17.2
2017-Jun-25 00:20 028 6 gusting 10 17.2
2017-Jun-25 00:15 030 6 gusting 11 17.2
2017-Jun-25 00:10 034 6 gusting 11 17.2
2017-Jun-25 00:05 032 6 gusting 12 17.2
2017-Jun-25 00:00 031 7 gusting 12 17.2
2017-Jun-24 23:55 032 6 gusting 11 17.2
2017-Jun-24 23:50 360 8 gusting 11 17.2
2017-Jun-24 23:45 038 6 gusting 11 17.2
2017-Jun-24 23:40 032 5 gusting 10 17.2
2017-Jun-24 23:35 039 5 gusting 11 17.2
2017-Jun-24 23:30 040 6 gusting 12 17.2
2017-Jun-24 23:25 360 8 gusting 12 17.2
2017-Jun-24 23:20 033 8 gusting 12 17.2
2017-Jun-24 23:15 035 6 gusting 12 17.2
2017-Jun-24 23:10 038 8 gusting 14 17.2
2017-Jun-24 23:05 032 8 gusting 14 17.2
2017-Jun-24 23:00 026 9 gusting 14 17.2
2017-Jun-24 22:55 360 10 gusting 14 17.2
2017-Jun-24 22:50 034 10 gusting 14 17.2
2017-Jun-24 22:45 049 6 gusting 11 17.2
2017-Jun-24 22:40 032 6 gusting 15 17.2
2017-Jun-24 22:35 032 10 gusting 15 17.2
2017-Jun-24 22:30 021 6 gusting 10 17.2
2017-Jun-24 22:25 040 6 gusting 11 17.2
2017-Jun-24 22:20 065 6 gusting 11 17.2
2017-Jun-24 22:10 028 5 gusting 12 17.2
2017-Jun-24 22:05 036 4 gusting 11 17.8
2017-Jun-24 22:00 032 6 gusting 12 17.8
2017-Jun-24 21:55 030 6 gusting 13 17.8
2017-Jun-24 21:50 016 7 gusting 17 17.8
2017-Jun-24 21:45 035 9 gusting 17 17.8
2017-Jun-24 21:40 028 7 gusting 14 17.8
2017-Jun-24 21:35 034 7 gusting 16 17.8
2017-Jun-24 21:30 026 10 gusting 16 17.8
2017-Jun-24 21:25 064 8 gusting 13 17.8
2017-Jun-24 21:20 037 6 gusting 13 17.8
2017-Jun-24 21:15 026 7 gusting 16 17.8
2017-Jun-24 21:10 018 11 gusting 16 17.8
2017-Jun-24 21:05 017 8 gusting 14 17.8
2017-Jun-24 21:00 043 8 gusting 16 17.8
2017-Jun-24 20:55 034 8 gusting 16 17.8
2017-Jun-24 20:50 049 8 gusting 16 17.8
2017-Jun-24 20:45 057 6 gusting 13 17.8
2017-Jun-24 20:40 040 7 gusting 14 17.8
2017-Jun-24 20:35 033 7 gusting 17 17.8
2017-Jun-24 20:30 043 9 gusting 17 18.3
2017-Jun-24 20:25 065 7 gusting 11 18.3
2017-Jun-24 20:20 037 7 gusting 11 18.3
2017-Jun-24 20:15 024 6 gusting 10 18.3
2017-Jun-24 20:10 040 6 gusting 10 18.3
2017-Jun-24 20:05 054 6 gusting 12 18.3
2017-Jun-24 20:00 029 7 gusting 12 18.3
2017-Jun-24 19:55 037 7 gusting 16 18.3
2017-Jun-24 19:50 031 6 gusting 13 18.3
2017-Jun-24 19:45 360 7 gusting 14 18.3
2017-Jun-24 19:40 047 6 gusting 14 18.3
2017-Jun-24 19:35 030 7 gusting 12 18.3
2017-Jun-24 19:30 061 6 gusting 13 18.3
2017-Jun-24 19:25 028 7 gusting 14 18.9
2017-Jun-24 19:20 030 10 gusting 14 18.9
2017-Jun-24 19:15 360 6 gusting 16 18.9
2017-Jun-24 19:10 057 9 gusting 16 18.9
2017-Jun-24 19:05 360 9 gusting 14 18.9
2017-Jun-24 19:00 360 9 gusting 14 18.9
2017-Jun-24 18:55 026 6 gusting 13 18.9
2017-Jun-24 18:50 360 6 gusting 15 19.4
2017-Jun-24 18:45 026 11 gusting 15 19.4
2017-Jun-24 18:40 360 7 gusting 14 19.4
2017-Jun-24 18:30 020 10 gusting 14 19.4
2017-Jun-24 18:25 013 8 gusting 14 19.4
2017-Jun-24 18:20 044 10 gusting 14 19.4
2017-Jun-24 18:15 028 8 gusting 14 19.4
2017-Jun-24 18:10 360 8 gusting 14 19.4
2017-Jun-24 18:05 071 8 gusting 12 20.0
2017-Jun-24 18:00 360 4 gusting 13 20.0
2017-Jun-24 17:55 360 9 gusting 13 20.0
2017-Jun-24 17:50 360 6 gusting 13 20.0
2017-Jun-24 17:45 360 9 gusting 14 20.0
2017-Jun-24 17:40 054 7 gusting 14 20.0
2017-Jun-24 17:35 360 8 gusting 14 20.0
2017-Jun-24 17:30 034 10 gusting 13 20.0
2017-Jun-24 17:25 347 5 gusting 12 20.0
2017-Jun-24 17:15 360 8 gusting 15 20.0
2017-Jun-24 17:10 360 8 gusting 15 20.0
2017-Jun-24 17:05 346 7 gusting 16 20.6
2017-Jun-24 17:00 360 10 gusting 17 20.0
2017-Jun-24 16:55 360 10 gusting 17 20.6
2017-Jun-24 16:50 360 10 gusting 17 20.6
2017-Jun-24 16:45 036 11 gusting 17 20.6
2017-Jun-24 16:40 360 10 gusting 16 21.7
2017-Jun-24 16:35 020 10 gusting 16 21.1
2017-Jun-24 16:30 360 7 gusting 12 20.6
2017-Jun-24 16:25 349 7 gusting 13 20.6
2017-Jun-24 16:15 360 6 gusting 12 20.6
2017-Jun-24 16:10 016 6 gusting 11 20.6
2017-Jun-24 16:05 360 7 gusting 13 21.1
2017-Jun-24 16:00 360 6 gusting 13 20.6
2017-Jun-24 15:55 036 6 gusting 12 21.1
2017-Jun-24 15:50 360 7 gusting 13 21.1
2017-Jun-24 15:45 360 6 gusting 13 21.1
2017-Jun-24 15:40 360 6 gusting 13 21.1
2017-Jun-24 15:35 360 7 gusting 13 21.1
2017-Jun-24 15:30 360 6 gusting 13 21.1
2017-Jun-24 15:25 360 6 gusting 13 21.1
2017-Jun-24 15:20 360 6 gusting 13 21.1
2017-Jun-24 15:15 360 6 gusting 13 21.1
2017-Jun-24 15:10 011 6 gusting 11 21.1
2017-Jun-24 15:05 360 7 gusting 13 21.1
2017-Jun-24 15:00 029 8 gusting 14 21.1
2017-Jun-24 14:55 038 7 gusting 13 21.1
2017-Jun-24 14:50 026 7 gusting 14 21.1
2017-Jun-24 14:45 360 9 gusting 13 21.1
2017-Jun-24 14:40 360 7 gusting 18 20.6
2017-Jun-24 14:35 360 8 gusting 15 20.6
2017-Jun-24 14:30 360 9 gusting 17 20.6
2017-Jun-24 14:25 360 10 gusting 17 20.6
2017-Jun-24 14:20 360 11 gusting 18 20.6
2017-Jun-24 14:15 360 10 gusting 18 20.6
2017-Jun-24 14:10 360 13 gusting 17 20.6
2017-Jun-24 14:05 360 8 gusting 15 21.1
2017-Jun-24 14:00 360 10 gusting 15 20.6